Find Starlink 2061

NORAD ID: 48312 Int'l Des: 2021-036 Owner: SPXS Country: US Constellation: starlink operational
LEOCIRCULAR

リアルタイム位置

3D地球を読み込み中...

Starlink 2061について

説明を読み込み中...

次回通過

Passes for default location (London). Set your location on the main map for personalized predictions.

高度履歴

Loading altitude history...

軌道要素

1 48312U 21036AN 26106.75002315 -.00003373 00000-0 -96974-4 0 9995
2 48312 53.1584 271.5738 0001251 78.8283 195.5204 15.31703611 5890
Epoch: Apr 16, 2026 • Age: 4 hours

現在のステータス

高度 475.1 km
速度 7.63 km/s
衛星直下点 47.44°N, 153.11°E
打ち上げ日 Apr 29, 2021
運用期間 4.9 years
タイプ internet

技術仕様

分類 Payload
質量 260.00 kg
乾燥質量 248.00 kg
総質量 260.00 kg
長さ 0.20 m
直径 2.80 m
スパン 9.00 m
形状 Box + pan
製造者 SPXS
バスタイプ Starlink
フェーズステータス In Orbit
所有者/国 SPXS/US

Most Searched